| time (UTC) | temp F | wind direction | speed MPH | gust MPH | rain 1hr in | rain 24hr in | rain mn in | humidity % | barometer mb |
| 20260903202521 | 80 | 249 | 0.0 | 0.0 | 0.00 | 1.95 | 1.95 | 90 | 1012.3 |
| 20260903202021 | 80 | 249 | 0.0 | 0.0 | 0.00 | 1.95 | 1.95 | 90 | 1012.1 |
| 20260903201523 | 81 | 249 | 0.0 | 0.0 | 0.00 | 1.95 | 1.95 | 90 | 1012.2 |
| 20260903201015 | 80 | 249 | 0.0 | 0.0 | 0.00 | 1.95 | 1.95 | 90 | 1012.0 |
| 20260903200512 | 81 | 249 | 0.0 | 1.0 | 0.00 | 1.95 | 1.95 | 89 | 1012.2 |
| 20260903200009 | 81 | 249 | 0.0 | 1.0 | 0.00 | 1.95 | 1.95 | 90 | 1012.4 |
| 20260903195505 | 80 | 248 | 0.0 | 1.0 | 0.00 | 1.95 | 1.95 | 91 | 1012.4 |
| 20260903195001 | 80 | 248 | 0.0 | 0.0 | 0.00 | 1.95 | 1.95 | 92 | 1012.5 |
| 20260903194724 | 80 | 248 | 0.0 | 0.0 | 0.00 | 1.95 | 1.95 | 92 | 1012.6 |
| 20260903194206 | 80 | 248 | 0.0 | 0.0 | 0.00 | 1.95 | 1.95 | 93 | 1012.5 |
| 20260903193700 | 79 | 248 | 0.0 | 0.0 | 0.00 | 1.95 | 1.95 | 93 | 1012.2 |
| 20260903192944 | 79 | 248 | 0.0 | 0.0 | 0.00 | 1.95 | 1.95 | 93 | 1012.1 |
| 20260903192436 | 78 | 248 | 0.0 | 0.0 | 0.00 | 1.95 | 1.95 | 92 | 1012.2 |
| 20260903191921 | 78 | 248 | 0.0 | 0.0 | 0.00 | 1.95 | 1.95 | 91 | 1012.2 |
| 20260903191415 | 79 | 248 | 0.0 | 0.0 | 0.00 | 1.95 | 1.95 | 91 | 1012.5 |
| 20260903191144 | 79 | 248 | 0.0 | 0.0 | 0.00 | 1.95 | 1.95 | 90 | 1012.7 |
| 20260903190348 | 80 | 246 | 0.0 | 0.0 | 0.00 | 1.95 | 1.95 | 90 | 1013.0 |
| 20260903190111 | 80 | 245 | 0.0 | 0.0 | 0.00 | 1.95 | 1.95 | 89 | 1013.2 |
| 20260903185333 | 80 | 245 | 0.0 | 0.0 | 0.00 | 1.95 | 1.95 | 89 | 1013.1 |
| 20260903184831 | 80 | 246 | 0.0 | 0.0 | 0.00 | 1.95 | 1.95 | 88 | 1013.2 |
| 20260903184326 | 81 | 246 | 0.0 | 0.0 | 0.00 | 1.95 | 1.95 | 88 | 1013.2 |
| 20260903183816 | 81 | 246 | 0.0 | 2.0 | 0.00 | 1.95 | 1.95 | 87 | 1013.2 |
| 20260903183309 | 81 | 246 | 0.0 | 2.0 | 0.00 | 1.95 | 1.95 | 88 | 1013.2 |
| 20260903182749 | 82 | 242 | 0.0 | 0.0 | 0.00 | 1.95 | 1.95 | 87 | 1013.2 |
| 20260903182247 | 82 | 242 | 0.0 | 0.0 | 0.00 | 1.95 | 1.95 | 87 | 1013.2 |
| 20260903182005 | 83 | 242 | 0.0 | 0.0 | 0.00 | 1.95 | 1.95 | 87 | 1013.3 |
| 20260903181243 | 83 | 242 | 0.0 | 0.0 | 0.00 | 1.95 | 1.95 | 85 | 1013.2 |
| 20260903180741 | 83 | 242 | 0.0 | 0.0 | 0.00 | 1.95 | 1.95 | 85 | 1013.1 |
| 20260903180703 | 84 | 242 | 0.0 | 1.0 | 0.00 | 1.95 | 1.95 | 85 | 1013.1 |
| 20260903175715 | 84 | 242 | 0.0 | 1.0 | 0.00 | 1.95 | 1.95 | 85 | 1013.2 |
| 20260903175211 | 85 | 241 | 0.0 | 0.0 | 0.00 | 1.95 | 1.95 | 85 | 1013.3 |
| 20260903174711 | 85 | 224 | 0.0 | 1.0 | 0.00 | 1.95 | 1.95 | 85 | 1013.2 |
| 20260903174203 | 85 | 224 | 0.0 | 2.0 | 0.00 | 1.95 | 1.95 | 83 | 1013.2 |
| 20260903173910 | 86 | 224 | 0.0 | 2.0 | 0.00 | 1.95 | 1.95 | 83 | 1013.3 |
| 20260903173127 | 86 | 221 | 0.0 | 0.0 | 0.00 | 1.95 | 1.95 | 82 | 1013.3 |
| 20260903172618 | 86 | 221 | 0.0 | 1.0 | 0.00 | 1.95 | 1.95 | 81 | 1013.4 |
| 20260903172115 | 86 | 197 | 0.0 | 3.0 | 0.00 | 1.95 | 1.95 | 81 | 1013.6 |
| 20260903171612 | 86 | 197 | 0.0 | 3.0 | 0.00 | 1.95 | 1.95 | 81 | 1013.6 |
| 20260903171106 | 86 | 197 | 0.0 | 3.0 | 0.00 | 1.95 | 1.95 | 81 | 1013.9 |
| 20260903170547 | 86 | 197 | 0.0 | 4.0 | 0.00 | 1.95 | 1.95 | 81 | 1013.8 |
| 20260903170048 | 86 | 197 | 0.0 | 4.0 | 0.00 | 1.95 | 1.95 | 81 | 1013.8 |
| 20260903165529 | 86 | 198 | 0.0 | 2.0 | 0.00 | 1.95 | 1.95 | 82 | 1013.9 |
| 20260903165019 | 85 | 198 | 0.0 | 3.0 | 0.00 | 1.95 | 1.95 | 82 | 1013.8 |
| 20260903164514 | 85 | 198 | 0.0 | 2.0 | 0.00 | 1.95 | 1.95 | 83 | 1013.8 |
| 20260903164017 | 85 | 198 | 0.0 | 2.0 | 0.00 | 1.95 | 1.95 | 83 | 1013.9 |
| 20260903163947 | 84 | 198 | 0.0 | 3.0 | 0.00 | 1.95 | 1.95 | 82 | 1013.9 |
| 20260903163005 | 85 | 197 | 0.0 | 3.0 | 0.00 | 1.95 | 1.95 | 82 | 1014.0 |
| 20260903162446 | 85 | 197 | 0.0 | 0.0 | 0.00 | 1.95 | 1.95 | 84 | 1014.0 |
| 20260903161946 | 84 | 197 | 0.0 | 0.0 | 0.00 | 1.95 | 1.95 | 84 | 1014.0 |
| 20260903161440 | 83 | 197 | 0.0 | 0.0 | 0.00 | 1.95 | 1.95 | 85 | 1013.9 |
| 20260903160936 | 83 | 197 | 0.0 | 0.0 | 0.00 | 1.95 | 1.95 | 84 | 1013.7 |
| 20260903160432 | 83 | 197 | 0.0 | 0.0 | 0.00 | 1.95 | 1.95 | 83 | 1013.6 |
| 20260903155931 | 84 | 197 | 0.0 | 0.0 | 0.00 | 1.95 | 1.95 | 84 | 1013.6 |
| 20260903155424 | 83 | 197 | 0.0 | 0.0 | 0.00 | 1.95 | 1.95 | 85 | 1013.6 |
| 20260903154920 | 83 | 197 | 0.0 | 0.0 | 0.00 | 1.95 | 1.95 | 85 | 1013.8 |
| 20260903154415 | 83 | 197 | 0.0 | 0.0 | 0.00 | 1.95 | 1.95 | 85 | 1013.8 |
| 20260903153906 | 83 | 197 | 0.0 | 2.0 | 0.00 | 1.95 | 1.95 | 85 | 1013.8 |
| 20260903153632 | 83 | 196 | 0.0 | 3.0 | 0.00 | 1.95 | 1.95 | 86 | 1013.7 |
| 20260903152858 | 83 | 196 | 0.0 | 3.0 | 0.00 | 1.95 | 1.95 | 85 | 1013.8 |
| 20260903152358 | 83 | 198 | 1.0 | 3.0 | 0.00 | 1.95 | 1.95 | 85 | 1013.8 |
| 20260903151836 | 82 | 198 | 1.0 | 3.0 | 0.00 | 1.95 | 1.95 | 86 | 1013.8 |
| 20260903151312 | 82 | 198 | 1.0 | 4.0 | 0.00 | 1.95 | 1.95 | 87 | 1013.8 |
| 20260903150807 | 81 | 195 | 1.0 | 4.0 | 0.00 | 1.95 | 1.95 | 87 | 1013.7 |
| 20260903150306 | 81 | 195 | 0.0 | 4.0 | 0.00 | 1.95 | 1.95 | 88 | 1013.7 |
| 20260903145800 | 80 | 195 | 1.0 | 4.0 | 0.00 | 1.95 | 1.95 | 89 | 1013.7 |
| 20260903145300 | 80 | 195 | 2.0 | 4.0 | 0.00 | 1.95 | 1.95 | 89 | 1013.6 |
| 20260903144752 | 80 | 195 | 2.0 | 4.0 | 0.00 | 1.95 | 1.95 | 89 | 1013.5 |
| 20260903144246 | 79 | 184 | 2.0 | 4.0 | 0.00 | 1.95 | 1.95 | 90 | 1013.7 |
| 20260903143740 | 79 | 151 | 2.0 | 4.0 | 0.00 | 1.95 | 1.95 | 91 | 1013.6 |
| 20260903143238 | 78 | 148 | 2.0 | 4.0 | 0.00 | 1.95 | 1.95 | 92 | 1013.5 |
| 20260903142733 | 78 | 147 | 2.0 | 4.0 | 0.00 | 1.95 | 1.95 | 94 | 1013.5 |
| 20260903142214 | 77 | 147 | 1.0 | 5.0 | 0.00 | 1.95 | 1.95 | 95 | 1013.6 |
| 20260903141712 | 77 | 147 | 0.0 | 5.0 | 0.00 | 1.95 | 1.95 | 96 | 1013.5 |
| 20260903141211 | 76 | 147 | 1.0 | 4.0 | 0.00 | 1.95 | 1.95 | 97 | 1013.5 |
| 20260903140641 | 76 | 147 | 0.0 | 4.0 | 0.00 | 1.95 | 1.95 | 98 | 1013.4 |
| 20260903140109 | 75 | 147 | 0.0 | 1.0 | 0.00 | 1.95 | 1.95 | 98 | 1013.3 |
| 20260903135604 | 74 | 147 | 0.0 | 0.0 | 0.00 | 1.95 | 1.95 | 99 | 1013.3 |
| 20260903135059 | 74 | 147 | 0.0 | 0.0 | 0.00 | 1.95 | 1.95 | 99 | 1013.3 |
| 20260903134811 | 74 | 147 | 0.0 | 0.0 | 0.00 | 1.95 | 1.95 | 99 | 1013.3 |
| 20260903134317 | 73 | 147 | 1.0 | 4.0 | 0.00 | 1.95 | 1.95 | 99 | 1013.3 |
| 20260903133536 | 73 | 147 | 1.0 | 4.0 | 0.00 | 1.95 | 1.95 | 99 | 1013.1 |
| 20260903133255 | 72 | 147 | 0.0 | 0.0 | 0.00 | 1.95 | 1.95 | 99 | 1013.3 |
| 20260903132504 | 72 | 147 | 0.0 | 0.0 | 0.00 | 1.95 | 1.95 | 99 | 1013.3 |
| 20260903131945 | 71 | 147 | 0.0 | 2.0 | 0.00 | 1.95 | 1.95 | 99 | 1013.3 |
| 20260903131440 | 71 | 147 | 0.0 | 3.0 | 0.00 | 1.95 | 1.95 | 99 | 1013.2 |
| 20260903130931 | 71 | 147 | 0.0 | 3.0 | 0.00 | 1.95 | 1.95 | 99 | 1013.2 |
| 20260903130430 | 71 | 147 | 1.0 | 4.0 | 0.00 | 1.95 | 1.95 | 100 | 1013.3 |
| 20260903130149 | 70 | 147 | 2.0 | 4.0 | 0.00 | 1.95 | 1.95 | 99 | 1013.4 |
| 20260903125414 | 70 | 147 | 2.0 | 5.0 | 0.00 | 1.95 | 1.95 | 100 | 1013.3 |
| 20260903124916 | 70 | 147 | 3.0 | 5.0 | 0.00 | 1.95 | 1.95 | 99 | 1013.3 |
| 20260903124355 | 69 | 147 | 3.0 | 5.0 | 0.00 | 1.95 | 1.95 | 99 | 1013.3 |
| 20260903123842 | 69 | 147 | 2.0 | 5.0 | 0.00 | 1.95 | 1.95 | 99 | 1013.2 |
| 20260903123333 | 69 | 147 | 3.0 | 4.0 | 0.00 | 1.95 | 1.95 | 99 | 1013.2 |
| 20260903122826 | 69 | 147 | 3.0 | 5.0 | 0.00 | 1.95 | 1.95 | 99 | 1013.3 |
| 20260903122312 | 69 | 147 | 3.0 | 5.0 | 0.00 | 1.95 | 1.95 | 99 | 1013.2 |
| 20260903121801 | 69 | 147 | 3.0 | 5.0 | 0.00 | 1.95 | 1.95 | 99 | 1013.2 |
| 20260903121251 | 69 | 147 | 3.0 | 5.0 | 0.00 | 1.95 | 1.95 | 99 | 1013.2 |
| 20260903120734 | 69 | 148 | 1.0 | 4.0 | 0.00 | 1.95 | 1.95 | 99 | 1013.3 |
| 20260903120204 | 68 | 146 | 0.0 | 3.0 | 0.00 | 1.95 | 1.95 | 99 | 1013.3 |
| 20260903115654 | 68 | 146 | 0.0 | 3.0 | 0.00 | 1.95 | 1.95 | 99 | 1013.2 |
| 20260903115142 | 68 | 146 | 0.0 | 3.0 | 0.00 | 1.95 | 1.95 | 99 | 1013.1 |
| 20260903114633 | 68 | 146 | 0.0 | 1.0 | 0.00 | 1.95 | 1.95 | 99 | 1013.1 |
| 20260903114131 | 68 | 146 | 1.0 | 4.0 | 0.00 | 1.95 | 1.95 | 99 | 1013.0 |
| 20260903113846 | 68 | 146 | 1.0 | 4.0 | 0.00 | 1.95 | 1.95 | 99 | 1013.0 |
| 20260903113553 | 68 | 146 | 1.0 | 4.0 | 0.00 | 1.95 | 1.95 | 99 | 1012.9 |
| 20260903112547 | 68 | 146 | 3.0 | 5.0 | 0.01 | 1.95 | 1.95 | 99 | 1013.1 |
| 20260903112034 | 68 | 146 | 3.0 | 6.0 | 0.11 | 1.95 | 1.95 | 99 | 1013.1 |
| 20260903111747 | 68 | 146 | 1.0 | 6.0 | 0.32 | 1.95 | 1.95 | 99 | 1013.0 |
| 20260903111028 | 68 | 146 | 0.0 | 1.0 | 0.49 | 1.95 | 1.95 | 99 | 1013.0 |
| 20260903110506 | 68 | 146 | 0.0 | 0.0 | 0.50 | 1.95 | 1.95 | 99 | 1013.0 |
| 20260903110004 | 67 | 146 | 0.0 | 0.0 | 0.51 | 1.95 | 1.95 | 99 | 1012.9 |
| 20260903105430 | 67 | 146 | 0.0 | 1.0 | 0.52 | 1.95 | 1.95 | 99 | 1012.6 |
| 20260903105149 | 67 | 146 | 1.0 | 4.0 | 0.53 | 1.95 | 1.95 | 99 | 1012.6 |
| 20260903104426 | 67 | 146 | 1.0 | 6.0 | 0.53 | 1.95 | 1.95 | 99 | 1012.7 |
| 20260903103904 | 68 | 146 | 1.0 | 6.0 | 0.55 | 1.95 | 1.95 | 99 | 1012.7 |
| 20260903103359 | 68 | 144 | 0.0 | 0.0 | 0.58 | 1.95 | 1.95 | 99 | 1012.8 |
| 20260903102839 | 68 | 144 | 1.0 | 7.0 | 0.83 | 1.95 | 1.95 | 98 | 1013.0 |
| 20260903102332 | 68 | 144 | 1.0 | 9.0 | 1.06 | 1.94 | 1.94 | 98 | 1012.8 |
| 20260903101835 | 68 | 323 | 0.0 | 9.0 | 1.01 | 1.77 | 1.80 | 98 | 1013.0 |
| 20260903101330 | 68 | 9 | 0.0 | 0.0 | 0.91 | 1.50 | 1.51 | 98 | 1013.5 |
| 20260903100829 | 67 | 5 | 0.0 | 0.0 | 1.08 | 1.45 | 1.45 | 98 | 1012.7 |
| 20260903100328 | 68 | 5 | 0.0 | 0.0 | 1.23 | 1.45 | 1.45 | 98 | 1013.1 |
| 20260903095807 | 68 | 5 | 0.0 | 0.0 | 1.24 | 1.43 | 1.43 | 98 | 1013.5 |
| 20260903095306 | 68 | 9 | 0.0 | 0.0 | 1.23 | 1.42 | 1.42 | 98 | 1014.0 |
| 20260903095024 | 68 | 0 | 0.0 | 0.0 | 1.23 | 1.42 | 1.42 | 98 | 1014.1 |
| 20260903094300 | 68 | 355 | 1.0 | 6.0 | 1.23 | 1.42 | 1.42 | 98 | 1013.8 |
| 20260903093803 | 69 | 355 | 2.0 | 6.0 | 1.21 | 1.40 | 1.40 | 98 | 1014.5 |
| 20260903093251 | 69 | 29 | 3.0 | 17.0 | 1.13 | 1.32 | 1.34 | 98 | 1014.6 |
| 20260903093007 | 69 | 15 | 4.0 | 17.0 | 0.87 | 1.06 | 1.09 | 98 | 1015.4 |
| 20260903092710 | 69 | 348 | 2.0 | 7.0 | 0.64 | 0.83 | 0.86 | 98 | 1014.9 |
| 20260903091944 | 69 | 271 | 1.0 | 7.0 | 0.53 | 0.72 | 0.74 | 98 | 1013.8 |
| 20260903091211 | 69 | 0 | 0.0 | 5.0 | 0.32 | 0.51 | 0.51 | 98 | 1013.5 |
| 20260903090658 | 70 | 329 | 0.0 | 4.0 | 0.15 | 0.34 | 0.36 | 97 | 1014.0 |
| 20260903090157 | 70 | 329 | 1.0 | 4.0 | 0.00 | 0.19 | 0.19 | 98 | 1014.0 |
| 20260903085630 | 70 | 333 | 2.0 | 6.0 | 0.00 | 0.19 | 0.19 | 98 | 1013.9 |
| 20260903085129 | 70 | 5 | 2.0 | 6.0 | 0.00 | 0.19 | 0.19 | 98 | 1013.8 |
| 20260903084615 | 70 | 300 | 2.0 | 5.0 | 0.00 | 0.19 | 0.19 | 98 | 1012.1 |
| 20260903084332 | 70 | 198 | 2.0 | 3.0 | 0.00 | 0.19 | 0.19 | 98 | 1011.7 |
| 20260903083608 | 70 | 198 | 2.0 | 3.0 | 0.00 | 0.19 | 0.19 | 98 | 1011.7 |
| 20260903083103 | 70 | 198 | 2.0 | 3.0 | 0.00 | 0.19 | 0.19 | 98 | 1011.6 |
| 20260903082822 | 70 | 198 | 1.0 | 3.0 | 0.00 | 0.19 | 0.19 | 98 | 1011.8 |
| 20260903082056 | 70 | 198 | 0.0 | 3.0 | 0.00 | 0.19 | 0.19 | 98 | 1011.9 |
| 20260903081556 | 70 | 198 | 0.0 | 0.0 | 0.01 | 0.19 | 0.19 | 98 | 1012.0 |
| 20260903081125 | 70 | 198 | 1.0 | 3.0 | 0.01 | 0.19 | 0.19 | 98 | 1012.0 |
| 20260903080035 | 70 | 198 | 3.0 | 4.0 | 0.01 | 0.19 | 0.19 | 98 | 1011.6 |
| 20260903075531 | 70 | 198 | 3.0 | 4.0 | 0.01 | 0.19 | 0.19 | 98 | 1011.7 |
| 20260903075031 | 70 | 198 | 2.0 | 4.0 | 0.01 | 0.19 | 0.19 | 97 | 1011.8 |
| 20260903074518 | 70 | 198 | 2.0 | 4.0 | 0.01 | 0.19 | 0.19 | 97 | 1012.0 |
| 20260903074016 | 70 | 198 | 0.0 | 3.0 | 0.01 | 0.19 | 0.19 | 97 | 1011.9 |
| 20260903073717 | 70 | 198 | 0.0 | 0.0 | 0.02 | 0.19 | 0.19 | 97 | 1012.0 |
| 20260903072951 | 70 | 198 | 0.0 | 0.0 | 0.02 | 0.19 | 0.19 | 97 | 1012.0 |
| 20260903072438 | 70 | 198 | 0.0 | 0.0 | 0.02 | 0.19 | 0.19 | 97 | 1012.0 |
| 20260903071924 | 70 | 198 | 1.0 | 2.0 | 0.01 | 0.18 | 0.18 | 97 | 1012.0 |
| 20260903071421 | 70 | 198 | 1.0 | 2.0 | 0.01 | 0.18 | 0.18 | 96 | 1011.9 |
| 20260903070918 | 70 | 198 | 0.0 | 1.0 | 0.01 | 0.18 | 0.18 | 97 | 1011.9 |
| 20260903070633 | 70 | 198 | 0.0 | 0.0 | 0.01 | 0.18 | 0.18 | 96 | 1011.9 |
| 20260903065913 | 71 | 198 | 0.0 | 0.0 | 0.01 | 0.18 | 0.18 | 96 | 1012.2 |
| 20260903065356 | 71 | 198 | 0.0 | 0.0 | 0.01 | 0.18 | 0.18 | 96 | 1012.1 |
| 20260903064827 | 71 | 198 | 0.0 | 0.0 | 0.01 | 0.18 | 0.18 | 96 | 1012.3 |
| 20260903064256 | 71 | 198 | 0.0 | 0.0 | 0.02 | 0.18 | 0.18 | 95 | 1012.4 |
| 20260903064020 | 71 | 198 | 0.0 | 0.0 | 0.05 | 0.17 | 0.17 | 95 | 1012.5 |
| 20260903063221 | 71 | 198 | 0.0 | 0.0 | 0.17 | 0.17 | 0.17 | 95 | 1012.4 |
| 20260903062721 | 71 | 198 | 0.0 | 0.0 | 0.17 | 0.17 | 0.17 | 95 | 1012.6 |
| 20260903062431 | 71 | 198 | 0.0 | 0.0 | 0.17 | 0.17 | 0.17 | 94 | 1012.9 |
| 20260903061654 | 71 | 198 | 0.0 | 0.0 | 0.17 | 0.17 | 0.17 | 94 | 1013.0 |
| 20260903061155 | 71 | 198 | 0.0 | 0.0 | 0.17 | 0.17 | 0.17 | 93 | 1012.9 |
| 20260903060647 | 72 | 198 | 0.0 | 0.0 | 0.17 | 0.17 | 0.17 | 92 | 1013.3 |
| 20260903060148 | 72 | 198 | 0.0 | 0.0 | 0.17 | 0.17 | 0.17 | 90 | 1013.3 |
| 20260903055621 | 73 | 198 | 0.0 | 0.0 | 0.17 | 0.17 | 0.17 | 88 | 1013.3 |
| 20260903055340 | 74 | 198 | 0.0 | 2.0 | 0.17 | 0.17 | 0.17 | 86 | 1013.8 |
| 20260903054613 | 75 | 198 | 1.0 | 5.0 | 0.16 | 0.16 | 0.16 | 84 | 1013.8 |
| 20260903054057 | 77 | 271 | 1.0 | 5.0 | 0.16 | 0.16 | 0.16 | 80 | 1014.1 |
| 20260903053554 | 79 | 5 | 2.0 | 15.0 | 0.00 | 0.00 | 0.00 | 75 | 1014.4 |
| 20260903053544 | 80 | 302 | 4.0 | 15.0 | 0.00 | 0.00 | 0.00 | 73 | 1014.4 |
| 20260903052539 | 83 | 271 | 3.0 | 12.0 | 0.00 | 0.00 | 0.00 | 74 | 1014.3 |
| 20260903052021 | 83 | 200 | 1.0 | 7.0 | 0.00 | 0.00 | 0.00 | 78 | 1013.9 |
| 20260903051516 | 83 | 105 | 1.0 | 5.0 | 0.00 | 0.00 | 0.00 | 78 | 1013.0 |
| 20260903051010 | 83 | 159 | 1.0 | 5.0 | 0.00 | 0.00 | 0.00 | 79 | 1013.0 |
| 20260903050509 | 83 | 183 | 1.0 | 4.0 | 0.00 | 0.00 | 0.00 | 79 | 1012.8 |
| 20260903050230 | 83 | 219 | 1.0 | 4.0 | 0.00 | 0.00 | 0.00 | 79 | 1012.7 |
| 20260903045449 | 82 | 242 | 1.0 | 5.0 | 0.00 | 0.00 | 0.00 | 79 | 1012.5 |
| 20260903045146 | 82 | 264 | 1.0 | 5.0 | 0.00 | 0.00 | 0.00 | 80 | 1012.4 |
| 20260903044425 | 82 | 194 | 0.0 | 2.0 | 0.00 | 0.00 | 0.00 | 80 | 1012.3 |
| 20260903044138 | 82 | 194 | 0.0 | 3.0 | 0.00 | 0.00 | 0.00 | 80 | 1012.3 |
| 20260903043421 | 82 | 194 | 0.0 | 3.0 | 0.00 | 0.00 | 0.00 | 80 | 1012.3 |
| 20260903042902 | 82 | 194 | 1.0 | 2.0 | 0.00 | 0.00 | 0.00 | 80 | 1012.2 |
| 20260903042621 | 81 | 194 | 1.0 | 4.0 | 0.00 | 0.00 | 0.00 | 80 | 1012.1 |
| 20260903041850 | 81 | 143 | 0.0 | 4.0 | 0.00 | 0.00 | 0.00 | 81 | 1012.0 |
| 20260903041346 | 81 | 143 | 0.0 | 0.0 | 0.00 | 0.00 | 0.00 | 81 | 1011.9 |
| 20260903040843 | 81 | 141 | 0.0 | 3.0 | 0.00 | 0.00 | 0.00 | 81 | 1011.9 |
| 20260903040326 | 81 | 141 | 0.0 | 3.0 | 0.00 | 0.00 | 0.00 | 81 | 1011.9 |
| 20260903035817 | 81 | 141 | 0.0 | 0.0 | 0.00 | 0.00 | 0.00 | 81 | 1011.7 |
| 20260903035313 | 81 | 141 | 0.0 | 0.0 | 0.00 | 0.00 | 0.00 | 81 | 1011.8 |
| 20260903035037 | 81 | 141 | 0.0 | 0.0 | 0.00 | 0.00 | 0.00 | 81 | 1011.8 |
| 20260903034510 | 81 | 141 | 0.0 | 0.0 | 0.00 | 0.00 | 0.00 | 81 | 1011.7 |
| 20260903033749 | 81 | 141 | 0.0 | 0.0 | 0.00 | 0.00 | 0.00 | 81 | 1011.6 |
| 20260903033220 | 80 | 141 | 0.0 | 0.0 | 0.00 | 0.00 | 0.00 | 81 | 1011.3 |
| 20260903032708 | 80 | 141 | 0.0 | 4.0 | 0.00 | 0.00 | 0.00 | 82 | 1011.3 |
| 20260903032212 | 80 | 141 | 0.0 | 4.0 | 0.00 | 0.00 | 0.00 | 81 | 1011.3 |
| 20260903031647 | 81 | 140 | 0.0 | 0.0 | 0.00 | 0.00 | 0.00 | 81 | 1011.4 |
| 20260903031145 | 81 | 140 | 0.0 | 0.0 | 0.00 | 0.00 | 0.00 | 80 | 1011.5 |
| 20260903030636 | 82 | 140 | 0.0 | 4.0 | 0.00 | 0.00 | 0.00 | 80 | 1011.7 |
| 20260903030131 | 82 | 140 | 0.0 | 4.0 | 0.00 | 0.00 | 0.00 | 79 | 1011.7 |
| 20260903025629 | 82 | 140 | 0.0 | 0.0 | 0.00 | 0.00 | 0.00 | 79 | 1011.8 |
| 20260903025358 | 82 | 140 | 0.0 | 3.0 | 0.00 | 0.00 | 0.00 | 78 | 1012.1 |
| 20260903024618 | 82 | 140 | 0.0 | 3.0 | 0.00 | 0.00 | 0.00 | 78 | 1012.3 |
| 20260903024339 | 82 | 140 | 0.0 | 0.0 | 0.00 | 0.00 | 0.00 | 78 | 1012.4 |
| 20260903023615 | 83 | 140 | 0.0 | 0.0 | 0.00 | 0.00 | 0.00 | 78 | 1012.6 |
| 20260903023113 | 83 | 139 | 0.0 | 0.0 | 0.00 | 0.00 | 0.00 | 77 | 1012.6 |
| 20260903022557 | 83 | 139 | 0.0 | 0.0 | 0.00 | 0.00 | 0.00 | 77 | 1012.8 |
| 20260903022545 | 83 | 140 | 0.0 | 1.0 | 0.00 | 0.00 | 0.00 | 77 | 1012.8 |
| 20260903021544 | 83 | 139 | 0.0 | 1.0 | 0.00 | 0.00 | 0.00 | 76 | 1012.8 |
| 20260903021040 | 83 | 139 | 0.0 | 0.0 | 0.00 | 0.00 | 0.00 | 76 | 1012.8 |
| 20260903020521 | 83 | 139 | 0.0 | 0.0 | 0.00 | 0.00 | 0.00 | 76 | 1012.8 |
| 20260903020003 | 83 | 139 | 0.0 | 0.0 | 0.00 | 0.00 | 0.00 | 76 | 1012.7 |
| 20260903015458 | 84 | 139 | 0.0 | 0.0 | 0.00 | 0.00 | 0.00 | 75 | 1012.7 |
| 20260903014951 | 84 | 139 | 0.0 | 0.0 | 0.00 | 0.00 | 0.00 | 75 | 1012.7 |
| 20260903014447 | 84 | 139 | 0.0 | 0.0 | 0.00 | 0.00 | 0.00 | 75 | 1012.6 |
| 20260903013941 | 84 | 138 | 0.0 | 0.0 | 0.00 | 0.00 | 0.00 | 75 | 1012.6 |
| 20260903013439 | 84 | 138 | 0.0 | 0.0 | 0.00 | 0.00 | 0.00 | 74 | 1012.6 |
| 20260903012935 | 84 | 138 | 0.0 | 0.0 | 0.00 | 0.00 | 0.00 | 74 | 1012.6 |
| 20260903012417 | 84 | 138 | 0.0 | 0.0 | 0.00 | 0.00 | 0.00 | 74 | 1012.7 |
| 20260903011911 | 85 | 138 | 0.0 | 0.0 | 0.00 | 0.00 | 0.00 | 73 | 1012.8 |
| 20260903011348 | 85 | 138 | 0.0 | 0.0 | 0.00 | 0.00 | 0.00 | 73 | 1012.9 |
| 20260903010844 | 85 | 138 | 0.0 | 0.0 | 0.00 | 0.00 | 0.00 | 72 | 1012.7 |
| 20260903010340 | 85 | 138 | 0.0 | 0.0 | 0.00 | 0.00 | 0.00 | 72 | 1012.8 |
| 20260903005835 | 85 | 138 | 0.0 | 0.0 | 0.00 | 0.00 | 0.00 | 72 | 1012.8 |
| 20260903005334 | 85 | 138 | 0.0 | 1.0 | 0.00 | 0.00 | 0.00 | 71 | 1012.9 |
| 20260903005106 | 85 | 90 | 0.0 | 1.0 | 0.00 | 0.00 | 0.00 | 71 | 1012.8 |
| 20260903004008 | 85 | 90 | 0.0 | 0.0 | 0.00 | 0.00 | 0.00 | 71 | 1012.7 |
| 20260903003243 | 85 | 89 | 0.0 | 0.0 | 0.00 | 0.00 | 0.00 | 70 | 1012.7 |
| 20260903002956 | 85 | 89 | 0.0 | 0.0 | 0.00 | 0.00 | 0.00 | 70 | 1012.6 |
| 20260903002448 | 85 | 89 | 0.0 | 0.0 | 0.00 | 0.00 | 0.00 | 70 | 1012.5 |
| 20260903001715 | 85 | 89 | 0.0 | 2.0 | 0.00 | 0.00 | 0.00 | 70 | 1012.4 |
| 20260903001210 | 85 | 89 | 0.0 | 2.0 | 0.00 | 0.00 | 0.00 | 70 | 1012.5 |
| 20260903000707 | 85 | 179 | 0.0 | 0.0 | 0.00 | 0.00 | 0.00 | 70 | 1012.5 |
| 20260903000149 | 85 | 179 | 0.0 | 0.0 | 0.00 | 0.00 | 0.00 | 70 | 1012.6 |
| 20260902235635 | 85 | 179 | 0.0 | 0.0 | 0.00 | 0.00 | 0.00 | 70 | 1012.6 |
| 20260902235132 | 86 | 180 | 0.0 | 0.0 | 0.00 | 0.00 | 0.00 | 70 | 1012.7 |
| 20260902234614 | 86 | 180 | 0.0 | 0.0 | 0.00 | 0.00 | 0.00 | 70 | 1012.8 |
| 20260902234105 | 86 | 180 | 0.0 | 0.0 | 0.00 | 0.00 | 0.00 | 69 | 1012.5 |
| 20260902233609 | 86 | 180 | 0.0 | 0.0 | 0.00 | 0.00 | 0.00 | 69 | 1012.4 |
| 20260902233046 | 86 | 180 | 0.0 | 2.0 | 0.00 | 0.00 | 0.00 | 69 | 1012.5 |
| 20260902232537 | 86 | 180 | 0.0 | 2.0 | 0.00 | 0.00 | 0.00 | 70 | 1012.4 |
| 20260902232240 | 86 | 179 | 0.0 | 0.0 | 0.00 | 0.00 | 0.00 | 73 | 1012.4 |
| 20260902231505 | 86 | 179 | 0.0 | 0.0 | 0.00 | 0.00 | 0.00 | 73 | 1012.4 |
| 20260902230956 | 86 | 179 | 0.0 | 0.0 | 0.00 | 0.00 | 0.00 | 74 | 1012.4 |
| 20260902230453 | 86 | 179 | 0.0 | 0.0 | 0.00 | 0.00 | 0.00 | 76 | 1012.4 |
| 20260902225953 | 87 | 179 | 0.0 | 0.0 | 0.00 | 0.00 | 0.00 | 76 | 1012.6 |
| 20260902225439 | 87 | 179 | 0.0 | 0.0 | 0.00 | 0.00 | 0.00 | 75 | 1012.6 |
| 20260902224940 | 87 | 179 | 0.0 | 0.0 | 0.00 | 0.00 | 0.00 | 75 | 1012.8 |
| 20260902224432 | 87 | 179 | 0.0 | 0.0 | 0.00 | 0.00 | 0.00 | 73 | 1012.8 |
| 20260902223934 | 88 | 179 | 0.0 | 0.0 | 0.00 | 0.00 | 0.00 | 73 | 1012.8 |
| 20260902223409 | 88 | 179 | 0.0 | 4.0 | 0.00 | 0.00 | 0.00 | 71 | 1012.7 |
| 20260902222903 | 89 | 179 | 0.0 | 4.0 | 0.00 | 0.00 | 0.00 | 70 | 1012.8 |
| 20260902222401 | 89 | 181 | 0.0 | 0.0 | 0.00 | 0.00 | 0.00 | 71 | 1012.8 |
| 20260902222318 | 89 | 181 | 0.0 | 0.0 | 0.00 | 0.00 | 0.00 | 69 | 1012.9 |
| 20260902221339 | 89 | 180 | 0.0 | 0.0 | 0.00 | 0.00 | 0.00 | 69 | 1012.9 |
| 20260902220806 | 90 | 180 | 0.0 | 0.0 | 0.00 | 0.00 | 0.00 | 69 | 1012.9 |
| 20260902220308 | 90 | 180 | 0.0 | 0.0 | 0.00 | 0.00 | 0.00 | 68 | 1012.7 |
| 20260902215747 | 90 | 180 | 0.0 | 0.0 | 0.00 | 0.00 | 0.00 | 68 | 1012.8 |
| 20260902215243 | 90 | 178 | 0.0 | 0.0 | 0.00 | 0.00 | 0.00 | 67 | 1012.7 |
| 20260902214719 | 90 | 182 | 0.0 | 0.0 | 0.00 | 0.00 | 0.00 | 66 | 1012.6 |
| 20260902214211 | 91 | 182 | 0.0 | 0.0 | 0.00 | 0.00 | 0.00 | 65 | 1012.6 |
| 20260902213709 | 91 | 181 | 0.0 | 2.0 | 0.00 | 0.00 | 0.00 | 65 | 1012.7 |
| 20260902213205 | 91 | 181 | 0.0 | 2.0 | 0.00 | 0.00 | 0.00 | 66 | 1012.7 |
| 20260902212706 | 91 | 181 | 0.0 | 2.0 | 0.00 | 0.00 | 0.00 | 65 | 1012.7 |
| 20260902212145 | 91 | 182 | 0.0 | 1.0 | 0.00 | 0.00 | 0.00 | 66 | 1012.8 |
| 20260902211641 | 91 | 182 | 0.0 | 3.0 | 0.00 | 0.00 | 0.00 | 65 | 1013.0 |
| 20260902211138 | 91 | 182 | 0.0 | 4.0 | 0.00 | 0.00 | 0.00 | 64 | 1013.0 |
| 20260902210635 | 91 | 173 | 0.0 | 4.0 | 0.00 | 0.00 | 0.00 | 63 | 1013.1 |
| 20260902210132 | 92 | 58 | 0.0 | 0.0 | 0.00 | 0.00 | 0.00 | 64 | 1013.1 |
| 20260902205622 | 92 | 58 | 0.0 | 3.0 | 0.00 | 0.00 | 0.00 | 64 | 1013.1 |
| 20260902205339 | 92 | 58 | 0.0 | 3.0 | 0.00 | 0.00 | 0.00 | 62 | 1013.2 |
| 20260902204616 | 92 | 38 | 0.0 | 0.0 | 0.00 | 0.00 | 0.00 | 63 | 1013.3 |
| 20260902204106 | 92 | 38 | 0.0 | 0.0 | 0.00 | 0.00 | 0.00 | 63 | 1013.4 |
| 20260902203603 | 92 | 34 | 0.0 | 4.0 | 0.00 | 0.00 | 0.00 | 63 | 1013.5 |
| 20260902203103 | 92 | 34 | 0.0 | 4.0 | 0.00 | 0.00 | 0.00 | 62 | 1013.5 |